Weather History for Clinton, IA

Change the Weather History Date:

Friday, February 8, 2013

  Actual Average Record
Temperature  
Mean Temperature 27 °F -  
Max Temperature 30 °F 30 °F 62 °F (1990)
Min Temperature 24 °F 12 °F -17 °F (1985)
Degree Days  
Heating Degree Days 38    
Moisture  
Dew Point 20 °F    
Average Humidity 75    
Maximum Humidity 80    
Minimum Humidity 69    
Precipitation  
Precipitation 0.01 in - - ()
Sea Level Pressure  
Sea Level Pressure 30.32 in    
Wind  
Wind Speed 12 mph (NNE)    
Max Wind Speed 18 mph    
Max Gust Speed 26 mph    
Visibility 10 miles    
Events      
Averages and records for this station are not official NWS values.
T = Trace of Precipitation, MM = Missing Value Source: NWS Daily Summary

Daily Weather History Graph

Daily Weather History Graph

Search for Another Location

Airport:

Trip Planner

Search our weather history database for the weather conditions in past years. The results will help you decide how hot, cold, wet, or windy it might be!

Date:

Astronomy

Feb. 08, 2013 Rise Set
Actual Time 7:05 AM CST 5:25 PM CST
Civil Twilight 6:36 AM CST 5:54 PM CST
Nautical Twilight 6:03 AM CST 6:27 PM CST
Astronomical Twilight 5:31 AM CST 7:00 PM CST
Moon 5:35 AM CST (2/8) 3:59 PM CST (2/8)
Length of Visible Light 11h 18m
Length of Day
10h 20m
Waning Crescent, 3% of the Moon is Illuminated
Feb 8
Waning Crescent
Feb 10
New
Feb 17
First Quarter
Feb 25
Full
Mar 4
Last Quarter

Hourly Weather History & Observations

Time (CST) Temp. Windchill Dew Point Humidity Pressure Visibility Wind Dir Wind Speed Gust Speed Precip Events Conditions
12:15 AM 30.2 °F 18.1 °F 24.8 °F 80% 30.10 in 10.0 mi North 18.4 mph - N/A   Overcast
12:55 AM 30.2 °F 18.1 °F 24.8 °F 80% 30.12 in 10.0 mi North 18.4 mph - N/A   Overcast
1:15 AM 30.2 °F 18.5 °F 24.8 °F 80% 30.12 in 10.0 mi North 17.3 mph - N/A   Overcast
1:35 AM 30.2 °F 18.9 °F 24.8 °F 80% 30.14 in 10.0 mi North 16.1 mph 20.7 mph N/A   Overcast
1:55 AM 30.2 °F 19.3 °F 24.8 °F 80% 30.15 in 10.0 mi North 15.0 mph 19.6 mph N/A   Overcast
2:15 AM 28.4 °F 15.8 °F 23.0 °F 80% 30.16 in 10.0 mi North 18.4 mph - N/A   Overcast
2:35 AM 28.4 °F 15.8 °F 21.2 °F 74% 30.16 in 10.0 mi North 18.4 mph 26.5 mph N/A   Overcast
2:55 AM 28.4 °F 16.6 °F 21.2 °F 74% 30.16 in 10.0 mi North 16.1 mph 23.0 mph N/A   Scattered Clouds
3:35 AM 26.6 °F 13.8 °F 21.2 °F 80% 30.18 in 10.0 mi NNE 17.3 mph - N/A   Overcast
3:55 AM 26.6 °F 14.7 °F 21.2 °F 80% 30.20 in 10.0 mi NNE 15.0 mph - N/A   Overcast
4:15 AM 26.6 °F 15.2 °F 21.2 °F 80% 30.21 in 10.0 mi NNE 13.8 mph - N/A   Overcast
4:35 AM 26.6 °F 15.7 °F 21.2 °F 80% 30.22 in 10.0 mi NNE 12.7 mph - N/A   Overcast
4:55 AM 26.6 °F 13.8 °F 21.2 °F 80% 30.23 in 10.0 mi NNE 17.3 mph - N/A   Overcast
5:15 AM 26.6 °F 13.4 °F 19.4 °F 74% 30.23 in 10.0 mi NNE 18.4 mph - N/A   Overcast
5:35 AM 24.8 °F 13.4 °F 19.4 °F 80% 30.24 in 10.0 mi NNE 12.7 mph - N/A   Scattered Clouds
5:55 AM 24.8 °F 14.0 °F 19.4 °F 80% 30.26 in 10.0 mi North 11.5 mph - N/A   Mostly Cloudy
6:15 AM 26.6 °F 14.3 °F 17.6 °F 69% 30.27 in 10.0 mi North 16.1 mph 20.7 mph N/A   Overcast
6:35 AM 26.6 °F 15.2 °F 19.4 °F 74% 30.28 in 10.0 mi NNE 13.8 mph - N/A   Overcast
6:55 AM 26.6 °F 15.7 °F 19.4 °F 74% 30.29 in 10.0 mi NNE 12.7 mph - N/A   Overcast
7:15 AM 26.6 °F 14.7 °F 19.4 °F 74% 30.29 in 10.0 mi NNE 15.0 mph - N/A   Overcast
7:35 AM 26.6 °F 15.7 °F 19.4 °F 74% 30.30 in 10.0 mi NNE 12.7 mph - N/A   Overcast
7:55 AM 26.6 °F 15.7 °F 19.4 °F 74% 30.31 in 10.0 mi North 12.7 mph - N/A   Overcast
8:15 AM 26.6 °F 15.7 °F 19.4 °F 74% 30.33 in 10.0 mi North 12.7 mph - N/A   Overcast
8:35 AM 26.6 °F 15.7 °F 19.4 °F 74% 30.34 in 10.0 mi North 12.7 mph 16.1 mph N/A   Overcast
8:55 AM 26.6 °F 16.2 °F 19.4 °F 74% 30.34 in 10.0 mi NNE 11.5 mph - N/A   Overcast
9:15 AM 26.6 °F 14.7 °F 19.4 °F 74% 30.35 in 10.0 mi North 15.0 mph - N/A   Overcast
9:35 AM 26.6 °F 15.2 °F 19.4 °F 74% 30.35 in 10.0 mi North 13.8 mph - N/A   Overcast
9:55 AM 26.6 °F 15.7 °F 19.4 °F 74% 30.35 in 10.0 mi NNE 12.7 mph - N/A   Overcast
10:15 AM 26.6 °F 16.2 °F 19.4 °F 74% 30.36 in 10.0 mi NNE 11.5 mph - N/A   Overcast
10:35 AM 26.6 °F 17.5 °F 19.4 °F 74% 30.37 in 10.0 mi North 9.2 mph - N/A   Overcast
10:55 AM 26.6 °F 16.8 °F 19.4 °F 74% 30.38 in 10.0 mi NNE 10.4 mph - N/A   Overcast
11:15 AM 26.6 °F 18.2 °F 19.4 °F 74% 30.38 in 10.0 mi North 8.1 mph - N/A   Overcast
11:35 AM 26.6 °F 17.5 °F 19.4 °F 74% 30.38 in 10.0 mi North 9.2 mph - N/A   Overcast
11:55 AM 26.6 °F 17.5 °F 19.4 °F 74% 30.37 in 10.0 mi NNE 9.2 mph - N/A   Overcast
12:15 PM 26.6 °F 19.1 °F 19.4 °F 74% 30.37 in 10.0 mi NE 6.9 mph - N/A   Overcast
12:35 PM 26.6 °F 21.2 °F 19.4 °F 74% 30.37 in 10.0 mi North 4.6 mph - N/A   Overcast
12:55 PM 26.6 °F 19.1 °F 19.4 °F 74% 30.37 in 10.0 mi NNE 6.9 mph - N/A   Overcast
1:15 PM 28.4 °F 23.3 °F 19.4 °F 69% 30.37 in 10.0 mi North 4.6 mph - N/A   Overcast
1:35 PM 26.6 °F 21.2 °F 19.4 °F 74% 30.36 in 10.0 mi North 4.6 mph - N/A   Overcast
1:55 PM 28.4 °F 22.2 °F 21.2 °F 74% 30.36 in 10.0 mi North 5.8 mph - N/A   Overcast
2:15 PM 28.4 °F 24.6 °F 21.2 °F 74% 30.37 in 10.0 mi NNW 3.5 mph - N/A   Overcast
2:35 PM 28.4 °F - 19.4 °F 69% 30.37 in 10.0 mi Calm Calm - N/A   Mostly Cloudy
2:55 PM 28.4 °F - 19.4 °F 69% 30.37 in 10.0 mi Calm Calm - N/A   Mostly Cloudy
3:15 PM 28.4 °F - 19.4 °F 69% 30.37 in 10.0 mi Calm Calm - N/A   Overcast
3:35 PM 28.4 °F - 19.4 °F 69% 30.38 in 10.0 mi Calm Calm - N/A   Overcast
3:55 PM 28.4 °F - 19.4 °F 69% 30.38 in 10.0 mi Calm Calm - N/A   Overcast
4:15 PM 28.4 °F - 19.4 °F 69% 30.37 in 10.0 mi Calm Calm - N/A   Overcast
4:35 PM 28.4 °F - 21.2 °F 74% 30.37 in 10.0 mi Calm Calm - N/A   Overcast
4:55 PM 28.4 °F - 21.2 °F 74% 30.38 in 10.0 mi Calm Calm - N/A   Overcast
5:15 PM 28.4 °F - 19.4 °F 69% 30.37 in 10.0 mi Calm Calm - N/A   Overcast
5:35 PM 28.4 °F - 21.2 °F 74% 30.37 in 10.0 mi Calm Calm - N/A   Overcast
5:55 PM 28.4 °F - 19.4 °F 69% 30.37 in 10.0 mi Calm Calm - N/A   Overcast
6:15 PM 28.4 °F - 19.4 °F 69% 30.37 in 10.0 mi Calm Calm - N/A   Overcast
6:35 PM 28.4 °F - 19.4 °F 69% 30.38 in 10.0 mi Calm Calm - N/A   Overcast
6:55 PM 28.4 °F - 19.4 °F 69% 30.38 in 10.0 mi Calm Calm - N/A   Overcast
7:15 PM 28.4 °F 23.3 °F 21.2 °F 74% 30.37 in 10.0 mi ESE 4.6 mph - N/A   Overcast
7:35 PM 28.4 °F 23.3 °F 19.4 °F 69% 30.39 in 10.0 mi South 4.6 mph - N/A   Overcast
7:55 PM 28.4 °F 24.6 °F 21.2 °F 74% 30.39 in 10.0 mi East 3.5 mph - N/A   Overcast
8:15 PM 26.6 °F 19.1 °F 21.2 °F 80% 30.38 in 10.0 mi East 6.9 mph - N/A   Overcast
8:35 PM 26.6 °F 17.5 °F 19.4 °F 74% 30.38 in 10.0 mi ESE 9.2 mph - N/A   Mostly Cloudy
8:55 PM 24.8 °F 14.6 °F 19.4 °F 80% 30.37 in 10.0 mi ESE 10.4 mph - N/A   Scattered Clouds
9:15 PM 24.8 °F 15.3 °F 19.4 °F 80% 30.38 in 10.0 mi SE 9.2 mph - N/A   Mostly Cloudy
9:35 PM 24.8 °F 16.1 °F 19.4 °F 80% 30.38 in 10.0 mi ESE 8.1 mph - N/A   Overcast
9:55 PM 26.6 °F 17.5 °F 19.4 °F 74% 30.38 in 10.0 mi ESE 9.2 mph - N/A   Overcast
10:15 PM 24.8 °F 16.1 °F 19.4 °F 80% 30.38 in 10.0 mi ESE 8.1 mph - N/A   Overcast
10:35 PM 24.8 °F 15.3 °F 19.4 °F 80% 30.38 in 10.0 mi ESE 9.2 mph - N/A   Overcast
10:55 PM 24.8 °F 14.6 °F 19.4 °F 80% 30.37 in 10.0 mi ESE 10.4 mph - N/A   Overcast
11:15 PM 24.8 °F 16.9 °F 19.4 °F 80% 30.37 in 10.0 mi SE 6.9 mph - N/A   Overcast
11:35 PM 26.6 °F 16.8 °F 19.4 °F 74% 30.37 in 10.0 mi SE 10.4 mph - N/A   Overcast
11:55 PM 26.6 °F 18.2 °F 19.4 °F 74% 30.37 in 10.0 mi SSE 8.1 mph - N/A   Overcast